DCFMI EDDH-LFMN

Flight info

Callsign DCFMI
Flight time 1h 53m
Altitude 36000
Route IDEKO7G/33 IDEKO N850 OHMAR DCT GISEM DCT FKS Y163 NATOR N850 ODINA DCT TONDA DCT BORDI
Aircraft E55P/M-SDGRWXY/S

Departure

Time 2026-05-07 19:20
Airport Hamburg Helmut Schmidt Airport (EDDH)

Arrival

Time 2026-05-07 21:13
Airport Nice-Côte d'Azur Airport (LFMN)
Time Latitude Longitude Altitude Speed Heading
2026-05-07 18:55 53.62735 9.98910 39 ft 0 kts 62°
2026-05-07 19:14 53.62736 9.98914 39 ft 0 kts 62°
2026-05-07 19:14 53.62737 9.98917 39 ft 1 kts 62°
2026-05-07 19:15 53.62744 9.98939 39 ft 3 kts 62°
2026-05-07 19:15 53.62758 9.98978 39 ft 4 kts 37°
2026-05-07 19:15 53.62790 9.98969 39 ft 5 kts 334°
2026-05-07 19:16 53.62825 9.98939 39 ft 5 kts 333°
2026-05-07 19:16 53.62864 9.98920 39 ft 6 kts
2026-05-07 19:16 53.62895 9.98967 39 ft 6 kts 55°
2026-05-07 19:16 53.62925 9.99030 40 ft 7 kts 49°
2026-05-07 19:17 53.62965 9.99109 40 ft 9 kts 49°
2026-05-07 19:17 53.63015 9.99206 40 ft 12 kts 50°
2026-05-07 19:17 53.63065 9.99328 40 ft 12 kts 56°
2026-05-07 19:17 53.63071 9.99344 40 ft 0 kts 56°
2026-05-07 19:18 53.63073 9.99347 40 ft 1 kts 43°
2026-05-07 19:18 53.63090 9.99349 40 ft 3 kts 25°
2026-05-07 19:18 53.63096 9.99358 40 ft 0 kts 57°
2026-05-07 19:18 53.63113 9.99421 41 ft 12 kts 59°
2026-05-07 19:19 53.63177 9.99472 41 ft 7 kts 352°
2026-05-07 19:19 53.63187 9.99466 41 ft 0 kts 335°
2026-05-07 19:19 53.63245 9.99418 41 ft 39 kts 329°
2026-05-07 19:19 53.63809 9.98980 43 ft 135 kts 337°
2026-05-07 19:20 53.64781 9.98089 480 ft 182 kts 334°
2026-05-07 19:20 53.65915 9.97044 1449 ft 189 kts 336°
2026-05-07 19:20 53.67196 9.96012 1789 ft 223 kts 339°
2026-05-07 19:20 53.68676 9.94780 2142 ft 252 kts 336°
2026-05-07 19:21 53.70199 9.93451 2445 ft 245 kts 332°
2026-05-07 19:21 53.71295 9.91277 2739 ft 248 kts 291°
2026-05-07 19:21 53.71378 9.88411 3063 ft 246 kts 252°
2026-05-07 19:21 53.70773 9.85759 3388 ft 242 kts 250°
2026-05-07 19:22 53.70229 9.83076 3687 ft 244 kts 250°
2026-05-07 19:22 53.69667 9.80274 4069 ft 265 kts 251°
2026-05-07 19:22 53.69075 9.77291 4743 ft 271 kts 251°
2026-05-07 19:22 53.68483 9.74294 5663 ft 268 kts 252°
2026-05-07 19:23 53.67904 9.71348 6511 ft 268 kts 252°
2026-05-07 19:23 53.67320 9.68382 7374 ft 270 kts 252°
2026-05-07 19:23 53.66725 9.65366 8117 ft 272 kts 252°
2026-05-07 19:23 53.66128 9.62341 8938 ft 274 kts 252°
2026-05-07 19:24 53.65351 9.59420 9636 ft 278 kts 231°
2026-05-07 19:24 53.63788 9.57574 10312 ft 280 kts 198°
2026-05-07 19:24 53.61893 9.57226 10968 ft 283 kts 182°
2026-05-07 19:24 53.59812 9.56852 10926 ft 312 kts 186°
2026-05-07 19:25 53.57619 9.56435 11270 ft 325 kts 187°
2026-05-07 19:25 53.55398 9.55996 12022 ft 323 kts 187°
2026-05-07 19:25 53.53178 9.55556 12753 ft 322 kts 187°
2026-05-07 19:25 53.50950 9.55117 13374 ft 326 kts 187°
2026-05-07 19:26 53.48689 9.54671 14005 ft 329 kts 187°
2026-05-07 19:26 53.46419 9.54223 14611 ft 332 kts 187°
2026-05-07 19:26 53.44129 9.53773 15196 ft 335 kts 187°
2026-05-07 19:26 53.41793 9.53312 15737 ft 337 kts 187°
2026-05-07 19:27 53.39473 9.52856 16223 ft 341 kts 187°
2026-05-07 19:27 53.37094 9.52389 16722 ft 344 kts 187°
2026-05-07 19:27 53.34704 9.51922 17241 ft 346 kts 187°
2026-05-07 19:27 53.32333 9.51457 17760 ft 348 kts 187°
2026-05-07 19:28 53.29922 9.50985 18272 ft 349 kts 187°
2026-05-07 19:28 53.27513 9.50513 18770 ft 351 kts 188°
2026-05-07 19:28 53.25059 9.50034 19238 ft 354 kts 188°
2026-05-07 19:28 53.22617 9.49558 19676 ft 357 kts 187°
2026-05-07 19:29 53.20138 9.49073 20133 ft 360 kts 188°
2026-05-07 19:29 53.17666 9.48594 20589 ft 362 kts 188°
2026-05-07 19:29 53.15143 9.48103 21047 ft 364 kts 188°
2026-05-07 19:29 53.12644 9.47616 21499 ft 366 kts 188°
2026-05-07 19:30 53.10109 9.47125 22029 ft 365 kts 188°
2026-05-07 19:30 53.08712 9.46855 22347 ft 364 kts 188°
2026-05-07 19:30 53.06209 9.46370 22923 ft 362 kts 188°
2026-05-07 19:30 53.03710 9.45888 23477 ft 360 kts 188°
2026-05-07 19:31 53.01229 9.45407 23993 ft 360 kts 188°
2026-05-07 19:31 52.98751 9.44920 24509 ft 360 kts 189°
2026-05-07 19:31 52.96259 9.44378 25036 ft 359 kts 189°
2026-05-07 19:31 52.93813 9.43854 25559 ft 358 kts 189°
2026-05-07 19:32 52.91334 9.43323 26081 ft 358 kts 189°
2026-05-07 19:32 52.88862 9.42795 26600 ft 357 kts 189°
2026-05-07 19:32 52.86396 9.42269 27121 ft 356 kts 189°
2026-05-07 19:32 52.83939 9.41746 27650 ft 355 kts 189°
2026-05-07 19:33 52.81482 9.41222 28171 ft 354 kts 189°
2026-05-07 19:33 52.79082 9.40712 28675 ft 353 kts 189°
2026-05-07 19:33 52.76635 9.40191 29050 ft 356 kts 189°
2026-05-07 19:33 52.74132 9.39659 29047 ft 370 kts 189°
2026-05-07 19:34 52.71560 9.39112 29070 ft 381 kts 189°
2026-05-07 19:34 52.68871 9.38544 29313 ft 386 kts 189°
2026-05-07 19:34 52.66230 9.37987 29839 ft 383 kts 189°
2026-05-07 19:34 52.63622 9.37435 30411 ft 380 kts 189°
2026-05-07 19:35 52.60990 9.36808 30906 ft 378 kts 191°
2026-05-07 19:35 52.58419 9.36124 31305 ft 378 kts 191°
2026-05-07 19:35 52.55808 9.35435 31700 ft 378 kts 191°
2026-05-07 19:35 52.53233 9.34759 32082 ft 378 kts 189°
2026-05-07 19:36 52.50621 9.34075 32469 ft 377 kts 189°
2026-05-07 19:36 52.48047 9.33403 32858 ft 377 kts 189°
2026-05-07 19:36 52.45424 9.32716 33236 ft 376 kts 189°
2026-05-07 19:36 52.42835 9.32041 33600 ft 376 kts 189°
2026-05-07 19:37 52.40252 9.31369 33952 ft 376 kts 189°
2026-05-07 19:37 52.37702 9.30705 34255 ft 375 kts 189°
2026-05-07 19:37 52.35104 9.30029 34559 ft 375 kts 189°
2026-05-07 19:37 52.32542 9.29359 34834 ft 375 kts 189°
2026-05-07 19:38 52.29968 9.28687 35047 ft 377 kts 189°
2026-05-07 19:38 52.27352 9.28005 35095 ft 382 kts 189°
2026-05-07 19:38 52.22069 9.26703 35104 ft 390 kts 186°
2026-05-07 19:39 52.16600 9.25729 35104 ft 398 kts 187°
2026-05-07 19:39 52.11054 9.24726 35105 ft 404 kts 187°
2026-05-07 19:40 52.05462 9.23713 35101 ft 410 kts 187°
2026-05-07 19:40 51.99821 9.22250 35099 ft 414 kts 189°
2026-05-07 19:41 51.94113 9.20755 35096 ft 419 kts 189°
2026-05-07 19:41 51.88324 9.19252 35093 ft 422 kts 189°
2026-05-07 19:42 51.82438 9.17974 35088 ft 426 kts 188°
2026-05-07 19:42 51.76548 9.16695 35082 ft 429 kts 188°
2026-05-07 19:43 51.70662 9.15421 35082 ft 430 kts 188°
2026-05-07 19:43 51.64727 9.14138 35085 ft 430 kts 188°
2026-05-07 19:44 51.58822 9.12866 35080 ft 430 kts 188°
2026-05-07 19:44 51.52912 9.11595 35088 ft 431 kts 188°
2026-05-07 19:45 51.47027 9.09894 35087 ft 430 kts 193°
2026-05-07 19:45 51.41173 9.07892 35085 ft 431 kts 193°
2026-05-07 19:46 51.35300 9.05895 35083 ft 432 kts 193°
2026-05-07 19:46 51.29456 9.03914 35081 ft 432 kts 193°
2026-05-07 19:47 51.23564 9.01922 35078 ft 433 kts 193°
2026-05-07 19:47 51.17685 8.99943 35069 ft 433 kts 193°
2026-05-07 19:48 51.11779 8.97955 35074 ft 434 kts 193°
2026-05-07 19:48 51.05874 8.96214 35069 ft 434 kts 193°
2026-05-07 19:49 50.99941 8.94243 35066 ft 435 kts 193°
2026-05-07 19:49 50.94038 8.92296 35067 ft 435 kts 193°
2026-05-07 19:50 50.88094 8.90341 35047 ft 435 kts 193°
2026-05-07 19:50 50.82184 8.88397 35064 ft 434 kts 194°
2026-05-07 19:51 50.76255 8.86337 35056 ft 433 kts 194°
2026-05-07 19:51 50.70414 8.84314 35071 ft 431 kts 194°
2026-05-07 19:52 50.64580 8.82301 35059 ft 429 kts 194°
2026-05-07 19:52 50.58731 8.80338 35068 ft 427 kts 194°
2026-05-07 19:53 50.52931 8.78405 35059 ft 426 kts 194°
2026-05-07 19:53 50.47141 8.76484 35066 ft 425 kts 194°
2026-05-07 19:54 50.41377 8.74574 35073 ft 424 kts 194°
2026-05-07 19:54 50.35592 8.72661 35064 ft 424 kts 194°
2026-05-07 19:55 50.29806 8.70754 35063 ft 423 kts 194°
2026-05-07 19:55 50.24068 8.68868 35057 ft 423 kts 194°
2026-05-07 19:56 50.18282 8.66968 35062 ft 425 kts 194°
2026-05-07 19:56 50.12517 8.65084 35062 ft 427 kts 194°
2026-05-07 19:57 50.06690 8.63183 35067 ft 429 kts 194°
2026-05-07 19:57 50.00812 8.61268 35064 ft 431 kts 194°
2026-05-07 19:58 49.94937 8.59359 35068 ft 432 kts 194°
2026-05-07 19:58 49.89025 8.57444 35067 ft 434 kts 194°
2026-05-07 19:59 49.83092 8.55526 35060 ft 435 kts 194°
2026-05-07 19:59 49.77135 8.53959 35059 ft 437 kts 186°
2026-05-07 20:00 49.71072 8.53194 35056 ft 437 kts 187°
2026-05-07 20:00 49.65028 8.52398 35065 ft 437 kts 188°
2026-05-07 20:01 49.62873 8.52116 35061 ft 438 kts 188°
2026-05-07 20:01 49.59693 8.51697 35063 ft 438 kts 188°
2026-05-07 20:02 49.53621 8.50900 35057 ft 438 kts 188°
2026-05-07 20:02 49.47546 8.50102 35059 ft 439 kts 188°
2026-05-07 20:03 49.41464 8.49312 35058 ft 439 kts 188°
2026-05-07 20:03 49.35350 8.48515 35061 ft 439 kts 188°
2026-05-07 20:04 49.29265 8.47726 35056 ft 439 kts 188°
2026-05-07 20:04 49.23192 8.46935 35057 ft 439 kts 188°
2026-05-07 20:05 49.17073 8.46140 35047 ft 438 kts 188°
2026-05-07 20:05 49.11053 8.45358 35055 ft 436 kts 188°
2026-05-07 20:06 49.05026 8.44326 35054 ft 430 kts 197°
2026-05-07 20:06 48.99205 8.42259 35059 ft 429 kts 196°
2026-05-07 20:07 48.93437 8.40251 35058 ft 428 kts 196°
2026-05-07 20:07 48.87659 8.38245 35056 ft 427 kts 196°
2026-05-07 20:08 48.81860 8.36237 35058 ft 426 kts 196°
2026-05-07 20:08 48.76098 8.34190 35006 ft 424 kts 196°
2026-05-07 20:09 48.70378 8.32102 35057 ft 422 kts 197°
2026-05-07 20:10 48.61843 8.28993 35059 ft 423 kts 197°
2026-05-07 20:10 48.56103 8.26908 35055 ft 423 kts 197°
2026-05-07 20:11 48.50404 8.24850 35051 ft 423 kts 195°
2026-05-07 20:11 48.47458 8.24685 35049 ft 432 kts 175°
2026-05-07 20:11 48.44461 8.25479 35050 ft 432 kts 174°
2026-05-07 20:12 48.38523 8.26925 35050 ft 433 kts 174°
2026-05-07 20:12 48.32581 8.28367 35043 ft 433 kts 174°
2026-05-07 20:13 48.26625 8.29806 35054 ft 433 kts 174°
2026-05-07 20:13 48.20694 8.31237 35054 ft 433 kts 174°
2026-05-07 20:14 48.14756 8.32671 35057 ft 433 kts 174°
2026-05-07 20:14 48.08788 8.34120 35057 ft 433 kts 174°
2026-05-07 20:15 48.02845 8.35560 35055 ft 433 kts 174°
2026-05-07 20:15 47.96880 8.37004 35051 ft 433 kts 174°
2026-05-07 20:16 47.90948 8.38433 35051 ft 433 kts 174°
2026-05-07 20:16 47.85097 8.39842 35049 ft 433 kts 175°
2026-05-07 20:17 47.79145 8.41266 35054 ft 433 kts 175°
2026-05-07 20:17 47.73179 8.42689 35053 ft 434 kts 175°
2026-05-07 20:18 47.67218 8.43987 35057 ft 431 kts 179°
2026-05-07 20:18 47.61227 8.44841 35062 ft 432 kts 179°
2026-05-07 20:19 47.55228 8.45722 35063 ft 432 kts 179°
2026-05-07 20:19 47.49231 8.46603 35061 ft 433 kts 179°
2026-05-07 20:20 47.43255 8.47482 35062 ft 433 kts 179°
2026-05-07 20:20 47.37265 8.48358 35060 ft 433 kts 179°
2026-05-07 20:21 47.31270 8.49236 35061 ft 433 kts 179°
2026-05-07 20:21 47.25244 8.50114 35057 ft 434 kts 179°
2026-05-07 20:22 47.19251 8.50989 35061 ft 433 kts 179°
2026-05-07 20:22 47.13267 8.51858 35056 ft 434 kts 179°
2026-05-07 20:23 47.07261 8.52729 35059 ft 434 kts 179°
2026-05-07 20:23 47.01258 8.53599 35056 ft 433 kts 179°
2026-05-07 20:24 46.95301 8.54458 35059 ft 433 kts 179°
2026-05-07 20:24 46.89400 8.55306 35067 ft 433 kts 179°
2026-05-07 20:25 46.83384 8.56172 35072 ft 434 kts 179°
2026-05-07 20:25 46.77378 8.57031 35071 ft 436 kts 179°
2026-05-07 20:26 46.71331 8.57897 35062 ft 435 kts 179°
2026-05-07 20:26 46.65326 8.58752 35058 ft 433 kts 179°
2026-05-07 20:27 46.59357 8.59602 35059 ft 432 kts 179°
2026-05-07 20:27 46.53365 8.60454 35065 ft 431 kts 179°
2026-05-07 20:28 46.47410 8.61298 35065 ft 429 kts 179°
2026-05-07 20:28 46.41464 8.62135 35071 ft 428 kts 179°
2026-05-07 20:29 46.35581 8.62966 35067 ft 428 kts 179°
2026-05-07 20:29 46.29987 8.63753 35068 ft 427 kts 180°
2026-05-07 20:30 46.24099 8.64580 35072 ft 426 kts 180°
2026-05-07 20:30 46.18194 8.65409 35060 ft 425 kts 180°
2026-05-07 20:31 46.12328 8.66228 35058 ft 423 kts 180°
2026-05-07 20:31 46.09466 8.66068 35042 ft 409 kts 199°
2026-05-07 20:31 46.06766 8.64850 35057 ft 405 kts 202°
2026-05-07 20:32 46.01404 8.62476 35059 ft 404 kts 202°
2026-05-07 20:32 45.96037 8.60098 35056 ft 403 kts 202°
2026-05-07 20:33 45.90676 8.57723 35058 ft 402 kts 202°
2026-05-07 20:33 45.85443 8.55413 35052 ft 402 kts 202°
2026-05-07 20:34 45.80103 8.53060 35038 ft 401 kts 203°
2026-05-07 20:34 45.74759 8.50709 35026 ft 400 kts 202°
2026-05-07 20:35 45.69461 8.48384 35025 ft 399 kts 203°
2026-05-07 20:35 45.64158 8.46058 35020 ft 397 kts 203°
2026-05-07 20:36 45.58908 8.43761 35017 ft 396 kts 203°
2026-05-07 20:36 45.53645 8.41464 35013 ft 395 kts 203°
2026-05-07 20:36 45.50999 8.40315 34691 ft 392 kts 203°
2026-05-07 20:37 45.48393 8.39177 34259 ft 389 kts 203°
2026-05-07 20:37 45.45808 8.38053 33810 ft 386 kts 203°
2026-05-07 20:37 45.43272 8.36950 33360 ft 383 kts 204°
2026-05-07 20:37 45.40718 8.35843 32903 ft 380 kts 204°
2026-05-07 20:38 45.38197 8.34748 32450 ft 378 kts 203°
2026-05-07 20:38 45.35679 8.33658 32012 ft 376 kts 203°
2026-05-07 20:38 45.33165 8.32570 31599 ft 374 kts 203°
2026-05-07 20:38 45.30691 8.31498 31195 ft 372 kts 203°
2026-05-07 20:39 45.28229 8.30433 30786 ft 371 kts 203°
2026-05-07 20:39 45.25771 8.29373 30373 ft 369 kts 204°
2026-05-07 20:39 45.23320 8.28316 29988 ft 368 kts 204°
2026-05-07 20:39 45.20880 8.27258 29607 ft 368 kts 203°
2026-05-07 20:40 45.18415 8.26196 29229 ft 370 kts 203°
2026-05-07 20:40 45.15930 8.25124 28852 ft 371 kts 203°
2026-05-07 20:40 45.13470 8.24068 28475 ft 372 kts 202°
2026-05-07 20:40 45.11012 8.23014 28098 ft 372 kts 202°
2026-05-07 20:41 45.08507 8.21889 27712 ft 374 kts 203°
2026-05-07 20:41 45.06029 8.20781 27346 ft 378 kts 202°
2026-05-07 20:41 45.03527 8.19658 26974 ft 380 kts 202°
2026-05-07 20:41 45.00997 8.18526 26595 ft 382 kts 202°
2026-05-07 20:42 44.98460 8.17396 26214 ft 384 kts 202°
2026-05-07 20:42 44.95881 8.16242 25831 ft 385 kts 201°
2026-05-07 20:42 44.93341 8.15107 25449 ft 386 kts 201°
2026-05-07 20:42 44.90775 8.13965 25071 ft 387 kts 201°
2026-05-07 20:43 44.88177 8.12811 24685 ft 387 kts 200°
2026-05-07 20:43 44.85641 8.11683 24301 ft 387 kts 200°
2026-05-07 20:43 44.83059 8.10537 23924 ft 386 kts 200°
2026-05-07 20:43 44.80497 8.09400 23588 ft 384 kts 200°
2026-05-07 20:44 44.77946 8.08270 23251 ft 382 kts 200°
2026-05-07 20:44 44.75413 8.07150 22929 ft 379 kts 200°
2026-05-07 20:44 44.72919 8.06044 22624 ft 377 kts 199°
2026-05-07 20:44 44.70432 8.04945 22302 ft 375 kts 199°
2026-05-07 20:45 44.67947 8.03849 21983 ft 373 kts 199°
2026-05-07 20:45 44.65466 8.02753 21662 ft 371 kts 199°
2026-05-07 20:45 44.63022 8.01673 21354 ft 369 kts 199°
2026-05-07 20:45 44.60598 8.00607 21039 ft 367 kts 199°
2026-05-07 20:46 44.58149 7.99529 20719 ft 364 kts 199°
2026-05-07 20:46 44.55732 7.98464 20401 ft 363 kts 199°
2026-05-07 20:46 44.53345 7.97414 20097 ft 361 kts 199°
2026-05-07 20:46 44.50960 7.96369 19795 ft 359 kts 199°
2026-05-07 20:47 44.48567 7.95318 19487 ft 357 kts 199°
2026-05-07 20:47 44.46183 7.94273 19174 ft 356 kts 198°
2026-05-07 20:47 44.43850 7.93252 18877 ft 354 kts 198°
2026-05-07 20:47 44.41499 7.92222 18570 ft 352 kts 198°
2026-05-07 20:48 44.39180 7.91208 18260 ft 351 kts 198°
2026-05-07 20:48 44.36850 7.90190 17963 ft 349 kts 198°
2026-05-07 20:48 44.34542 7.89183 17661 ft 347 kts 198°
2026-05-07 20:48 44.32228 7.88174 17362 ft 345 kts 198°
2026-05-07 20:49 44.29966 7.87188 17075 ft 343 kts 198°
2026-05-07 20:49 44.27686 7.86196 17020 ft 334 kts 198°
2026-05-07 20:49 44.25481 7.85237 17022 ft 340 kts 198°
2026-05-07 20:49 44.23178 7.84236 17024 ft 348 kts 198°
2026-05-07 20:50 44.20867 7.83233 16864 ft 351 kts 198°
2026-05-07 20:50 44.18518 7.82212 16591 ft 351 kts 198°
2026-05-07 20:50 44.16206 7.81210 16319 ft 350 kts 198°
2026-05-07 20:50 44.13862 7.80192 16041 ft 350 kts 198°
2026-05-07 20:51 44.11554 7.79193 15768 ft 349 kts 198°
2026-05-07 20:51 44.09229 7.78188 15496 ft 348 kts 198°
2026-05-07 20:51 44.06882 7.77449 15193 ft 348 kts 182°
2026-05-07 20:51 44.04493 7.77974 14945 ft 347 kts 164°
2026-05-07 20:52 44.02243 7.79092 14675 ft 346 kts 159°
2026-05-07 20:52 44.00020 7.80444 14395 ft 345 kts 156°
2026-05-07 20:52 43.97854 7.81874 14124 ft 344 kts 155°
2026-05-07 20:52 43.95722 7.83322 13843 ft 342 kts 154°
2026-05-07 20:53 43.93595 7.84785 13572 ft 341 kts 154°
2026-05-07 20:53 43.91485 7.86244 13305 ft 340 kts 154°
2026-05-07 20:53 43.89517 7.87606 13044 ft 338 kts 154°
2026-05-07 20:53 43.87423 7.89054 12766 ft 337 kts 154°
2026-05-07 20:54 43.85328 7.90502 12495 ft 335 kts 154°
2026-05-07 20:54 43.83235 7.91899 12213 ft 334 kts 159°
2026-05-07 20:54 43.80969 7.92271 11912 ft 332 kts 188°
2026-05-07 20:54 43.78848 7.91099 11654 ft 330 kts 213°
2026-05-07 20:55 43.76981 7.89242 11384 ft 328 kts 221°
2026-05-07 20:55 43.75343 7.87063 11104 ft 327 kts 223°
2026-05-07 20:55 43.73705 7.84901 10834 ft 325 kts 224°
2026-05-07 20:55 43.72102 7.82769 10565 ft 321 kts 224°
2026-05-07 20:56 43.70538 7.80687 10279 ft 303 kts 224°
2026-05-07 20:56 43.69064 7.78725 9976 ft 288 kts 224°
2026-05-07 20:56 43.67657 7.76843 9681 ft 277 kts 224°
2026-05-07 20:56 43.66301 7.75023 9396 ft 269 kts 224°
2026-05-07 20:57 43.64962 7.73241 9128 ft 267 kts 224°
2026-05-07 20:57 43.63615 7.71457 8848 ft 266 kts 224°
2026-05-07 20:57 43.62284 7.69693 8577 ft 265 kts 224°
2026-05-07 20:57 43.60961 7.67944 8299 ft 264 kts 224°
2026-05-07 20:58 43.59639 7.66195 8034 ft 262 kts 224°
2026-05-07 20:58 43.58345 7.64479 7760 ft 259 kts 224°
2026-05-07 20:58 43.57052 7.62767 7484 ft 257 kts 224°
2026-05-07 20:58 43.55769 7.61076 7207 ft 256 kts 224°
2026-05-07 20:59 43.54475 7.59375 6928 ft 254 kts 224°
2026-05-07 20:59 43.53204 7.57705 6653 ft 253 kts 224°
2026-05-07 20:59 43.51937 7.56034 6384 ft 252 kts 224°
2026-05-07 20:59 43.50681 7.54378 6108 ft 250 kts 224°
2026-05-07 21:00 43.49430 7.52736 5891 ft 247 kts 224°
2026-05-07 21:00 43.48193 7.51113 5737 ft 245 kts 224°
2026-05-07 21:00 43.46960 7.49490 5599 ft 247 kts 224°
2026-05-07 21:00 43.45723 7.47862 5457 ft 249 kts 224°
2026-05-07 21:01 43.44467 7.46204 5310 ft 251 kts 224°
2026-05-07 21:01 43.43209 7.44545 5163 ft 252 kts 224°
2026-05-07 21:01 43.42065 7.42740 5004 ft 253 kts 244°
2026-05-07 21:01 43.41508 7.40435 4880 ft 252 kts 254°
2026-05-07 21:02 43.41106 7.38109 4724 ft 252 kts 269°
2026-05-07 21:02 43.41187 7.35736 4597 ft 251 kts 274°
2026-05-07 21:02 43.41279 7.33297 4449 ft 251 kts 273°
2026-05-07 21:02 43.41517 7.30942 4299 ft 250 kts 282°
2026-05-07 21:03 43.41848 7.28641 4146 ft 241 kts 281°
2026-05-07 21:03 43.42170 7.26421 4025 ft 229 kts 281°
2026-05-07 21:03 43.42474 7.24335 4013 ft 217 kts 281°
2026-05-07 21:03 43.42758 7.22376 4005 ft 206 kts 281°
2026-05-07 21:04 43.43035 7.20469 4011 ft 201 kts 281°
2026-05-07 21:04 43.43308 7.18584 4015 ft 199 kts 281°
2026-05-07 21:04 43.43240 7.16743 4027 ft 196 kts 247°
2026-05-07 21:04 43.42667 7.15045 4027 ft 197 kts 244°
2026-05-07 21:05 43.42073 7.13312 4024 ft 200 kts 244°
2026-05-07 21:05 43.41474 7.11570 4022 ft 203 kts 244°
2026-05-07 21:05 43.40861 7.09797 4031 ft 211 kts 244°
2026-05-07 21:05 43.40466 7.07815 4045 ft 222 kts 268°
2026-05-07 21:06 43.40378 7.05662 4037 ft 234 kts 262°
2026-05-07 21:06 43.40160 7.03385 4026 ft 244 kts 270°
2026-05-07 21:06 43.40719 7.01189 4038 ft 249 kts 309°
2026-05-07 21:06 43.41889 6.99433 4024 ft 249 kts 313°
2026-05-07 21:07 43.43050 6.97712 4036 ft 246 kts 315°
2026-05-07 21:07 43.44454 6.96396 3901 ft 248 kts 339°
2026-05-07 21:07 43.46123 6.95923 3782 ft 248 kts 358°
2026-05-07 21:07 43.47850 6.96322 3331 ft 259 kts 22°
2026-05-07 21:08 43.49347 6.97767 2795 ft 269 kts 46°
2026-05-07 21:08 43.50589 6.99702 2377 ft 273 kts 50°
2026-05-07 21:08 43.51819 7.01720 1974 ft 270 kts 50°
2026-05-07 21:08 43.52997 7.03611 1838 ft 248 kts 49°
2026-05-07 21:09 43.54055 7.05318 1853 ft 225 kts 50°
2026-05-07 21:09 43.55055 7.06880 1786 ft 209 kts 47°
2026-05-07 21:09 43.56013 7.08301 1649 ft 198 kts 47°
2026-05-07 21:09 43.56938 7.09632 1535 ft 187 kts 44°
2026-05-07 21:10 43.57872 7.10837 1340 ft 183 kts 43°
2026-05-07 21:10 43.58761 7.11953 1246 ft 157 kts 43°
2026-05-07 21:10 43.59525 7.12875 1090 ft 135 kts 39°
2026-05-07 21:10 43.60211 7.13668 846 ft 126 kts 40°
2026-05-07 21:11 43.60845 7.14465 580 ft 122 kts 43°
2026-05-07 21:11 43.61440 7.15274 395 ft 121 kts 48°
2026-05-07 21:11 43.62694 7.17028 568 ft 122 kts 41°
2026-05-07 21:12 43.63329 7.17831 432 ft 125 kts 45°
2026-05-07 21:12 43.63905 7.18670 353 ft 122 kts 44°
2026-05-07 21:12 43.64526 7.19506 235 ft 123 kts 45°
2026-05-07 21:12 43.65128 7.20345 98 ft 120 kts 45°
2026-05-07 21:13 43.65699 7.21127 24 ft 109 kts 45°
2026-05-07 21:13 43.66186 7.21795 21 ft 86 kts 46°
2026-05-07 21:13 43.66486 7.22053 21 ft 24 kts 14°
2026-05-07 21:13 43.66546 7.22038 21 ft 4 kts 322°
2026-05-07 21:14 43.66572 7.22007 21 ft 5 kts 318°
2026-05-07 21:14 43.66600 7.21968 21 ft 6 kts 313°
2026-05-07 21:14 43.66633 7.21928 21 ft 6 kts 340°
2026-05-07 21:14 43.66680 7.21953 21 ft 9 kts 46°
2026-05-07 21:15 43.66729 7.22020 21 ft 10 kts 45°
2026-05-07 21:15 43.66777 7.22093 21 ft 10 kts 54°
2026-05-07 21:15 43.66819 7.22145 21 ft 5 kts 345°
2026-05-07 21:15 43.66833 7.22126 21 ft 0 kts 313°